[[{"header":{"parameterUnit":"m.s-1","parameterCategory":1,"la1":30.2991,"la2":30.254,"lo1":-89.0895,"lo2":-89.0444,"dy":0.0017,"dx":0.0017,"nx":28,"ny":28,"refTime":"2024-08-27T03:00:00:Z","depth":0,"parameterNumber":2,"parameterNumberName":"U-component_of_WINDS"},"data":[0,0,0,0,0,0,0,0,0,0,0,0,0,0,0,0,0,0,0,0,0,0,0,0,0,0,0,0,0,0,0,0,0,0,0,0,0,0,0,0,0,0,0,0,0,0,0,0,0,0,0,0,0,0,0,0,0,0,-1.7463,-1.7465,0,-1.7588,-1.759,-1.7591,-1.7615,-1.7614,-1.7614,-1.7613,-1.7742,-1.7746,-1.775,0,0,0,0,0,0,0,0,0,0,0,0,0,-1.7248,-1.7252,-1.7463,-1.7465,-1.7466,-1.7588,-1.759,-1.7591,-1.7616,-1.7614,-1.7613,-1.7612,-1.774,-1.7745,-1.7751,0,0,0,0,0,0,0,0,0,0,0,0,0,-1.7354,-1.7253,-1.7463,-1.7493,-1.7497,-1.7588,-1.759,-1.7592,-1.7616,-1.7614,-1.7613,-1.7612,-1.7739,-1.7745,-1.7751,-1.7821,0,0,-1.7771,-1.7774,0,0,0,0,0,0,0,0,-1.7348,-1.7362,-1.7487,-1.7491,-1.7496,-1.7585,-1.7561,-1.7669,-1.7616,-1.7571,-1.7613,-1.7611,-1.7691,-1.7701,-1.7728,-1.7827,-1.7832,-1.7772,-1.7776,-1.7779,-1.778,0,0,0,0,0,0,0,-1.7341,-1.7357,-1.7513,-1.7489,-1.7494,-1.7501,-1.7515,-1.7582,-1.7637,-1.7575,-1.7577,-1.7591,-1.7693,-1.7721,-1.7731,-1.7834,-1.7772,-1.7777,-1.7781,-1.7784,-1.7998,-1.8,0,0,0,0,0,0,-1.7328,-1.7351,-1.7509,-1.7516,-1.7417,-1.7506,-1.7521,-1.7558,-1.7637,-1.7647,-1.7592,-1.7592,-1.7711,-1.7723,-1.7736,-1.7822,-1.7778,-1.7785,-1.7788,-1.7996,-1.7999,-1.8001,0,0,0,0,0,0,-1.7323,-1.7342,-1.7504,-1.7434,-1.7455,-1.7511,-1.7552,-1.7561,-1.7589,-1.765,-1.766,-1.7611,-1.771,-1.7726,-1.78,-1.7827,-1.7788,-1.7793,-1.7994,-1.7997,-1.8,-1.7996,0,0,0,0,0,0,-1.7317,-1.734,-1.7366,-1.7435,-1.7459,-1.7565,-1.7554,-1.7564,-1.76,-1.7601,-1.767,-1.768,-1.771,-1.779,-1.7806,-1.7836,-1.7799,-1.7992,-1.7996,-1.7999,-1.7994,-1.7999,-1.8002,0,0,0,0,0,-1.7309,-1.736,-1.7367,-1.7386,-1.7493,-1.7566,-1.758,-1.7613,-1.7603,-1.763,-1.7669,-1.7678,-1.7822,-1.7797,-1.7816,-1.7847,-1.7991,-1.7995,-1.7999,-1.7993,-1.7998,-1.8002,0,0,0,0,0,0,-1.7294,-1.737,-1.7378,-1.7453,-1.7503,-1.757,-1.7605,-1.7618,-1.7672,-1.767,-1.771,-1.7725,-1.7796,-1.783,-1.78,-1.792,-1.7906,-1.7914,-1.7895,-1.79,-1.7904,-1.7894,-1.7804,0,0,0,0,0,-1.7299,-1.7352,-1.7416,-1.7476,-1.75,-1.7549,-1.7582,-1.7603,-1.7657,-1.7678,-1.7722,-1.7774,-1.7832,-1.7868,-1.7924,-1.8,-1.8016,-1.8031,-1.8035,-1.8038,-1.8044,-1.8088,-1.8095,-1.8014,-1.8014,-1.8014,0,0,-1.7311,-1.7359,-1.739,-1.7474,-1.7515,-1.7569,-1.7566,-1.7624,-1.7665,-1.7687,-1.7758,-1.7793,-1.7854,-1.7929,-1.7965,-1.7959,-1.8071,-1.8043,-1.8045,-1.805,-1.8093,-1.81,-1.8107,-1.8016,-1.8016,-1.8016,0,0,-1.7359,-1.7401,-1.7455,-1.7497,-1.7559,-1.7591,-1.7605,-1.7671,-1.7694,-1.7767,-1.7785,-1.7835,-1.7932,-1.7975,-1.8009,-1.8076,-1.8087,-1.8094,-1.8114,-1.8156,-1.8162,-1.8168,-1.8192,-1.82,-1.81,-1.81,-1.81,0,-1.7365,-1.7447,-1.7482,-1.7539,-1.7576,-1.7599,-1.7655,-1.7694,-1.7771,-1.7797,-1.779,-1.7913,-1.7955,-1.8041,-1.8057,-1.8085,-1.8101,-1.8085,-1.8159,-1.8165,-1.8171,-1.8194,-1.8203,-1.81,-1.81,-1.81,-1.81,0,-1.7452,-1.7509,-1.7546,-1.762,-1.7661,-1.7717,-1.7761,-1.7799,-1.7817,-1.7851,-1.7925,-1.7977,-1.8044,-1.8067,-1.8085,-1.8156,-1.815,-1.8151,-1.8137,-1.8178,-1.8201,-1.821,-1.81,-1.81,-1.81,-1.81,0,0,-1.7492,-1.7586,-1.7599,-1.7633,-1.7705,-1.775,-1.7808,-1.7873,-1.7905,-1.7958,-1.8008,-1.8091,-1.8092,-1.8131,-1.8155,-1.8192,-1.8242,-1.8188,-1.819,-1.8196,-1.8323,-1.8321,-1.8331,-1.825,-1.8252,-1.8253,-1.8317,0,-1.7549,-1.7652,-1.7686,-1.7772,-1.7825,-1.7849,-1.7899,-1.7949,-1.7982,-1.8033,-1.807,-1.8128,-1.8125,-1.8149,-1.8187,-1.8227,-1.8267,-1.8223,-1.8297,-1.8299,-1.8279,-1.8342,-1.8341,-1.8399,-1.8326,-1.8328,-1.8329,0,-1.7628,-1.7682,-1.7774,-1.7839,-1.7863,-1.7908,-1.7971,-1.8019,-1.8077,-1.8098,-1.8143,-1.8164,-1.8227,-1.8211,-1.8298,-1.8267,-1.83,-1.8325,-1.8328,-1.8335,-1.8315,-1.835,-1.8418,-1.8426,-1.8343,-1.8342,-1.8341,0,-1.7648,-1.7744,-1.7811,-1.784,-1.7918,-1.7949,-1.7984,-1.804,-1.8077,-1.8133,-1.8158,-1.8221,-1.8255,-1.8303,-1.8341,-1.8326,-1.8425,-1.8413,-1.8445,-1.8444,-1.8464,-1.8462,-1.8537,-1.8486,-1.8486,-1.8486,-1.8486,0,-1.7707,-1.7762,-1.7821,-1.7862,-1.7925,-1.7964,-1.8025,-1.8061,-1.8111,-1.816,-1.8186,-1.8231,-1.8279,-1.8332,-1.8363,-1.843,-1.8446,-1.8465,-1.8473,-1.8463,-1.846,-1.8483,-1.848,-1.8488,-1.8488,-1.8487,-1.8487,0,-1.7739,-1.7781,-1.7856,-1.7924,-1.7943,-1.7986,-1.8045,-1.8086,-1.8121,-1.8183,-1.82,-1.8255,-1.8318,-1.8361,-1.8443,-1.8464,-1.8537,-1.8544,-1.8517,-1.852,-1.855,-1.8547,-1.8642,-1.8656,-1.8597,-1.8597,-1.8598,0,-1.7773,-1.7816,-1.7889,-1.7923,-1.7957,-1.8013,-1.8051,-1.8092,-1.8131,-1.8201,-1.8234,-1.8299,-1.8353,-1.8454,-1.8501,-1.8564,-1.8573,-1.8602,-1.8582,-1.8571,-1.8573,-1.8569,-1.8574,-1.8604,-1.8605,-1.8605,-1.8605,0,-1.7829,-1.7848,-1.7902,-1.7964,-1.8009,-1.806,-1.8111,-1.8138,-1.8189,-1.8232,-1.8296,-1.8338,-1.8422,-1.8486,-1.8554,-1.859,-1.8606,-1.8612,-1.8622,-1.8612,-1.8594,-1.8604,-1.8524,-1.8609,-1.8608,-1.8608,-1.8608,-1.8608,-1.7863,-1.7902,-1.796,-1.802,-1.8063,-1.811,-1.8152,-1.8193,-1.8247,-1.8318,-1.8339,-1.8407,-1.8465,-1.8557,-1.8595,-1.8649,-1.8647,-1.8662,-1.8666,-1.8669,-1.8669,-1.8586,-1.8662,-1.8662,-1.8662,-1.8662,-1.8662,0,-1.7921,-1.7959,-1.8014,-1.8084,-1.8131,-1.8143,-1.82,-1.8239,-1.8298,-1.8351,-1.8404,-1.8479,-1.8542,-1.8595,-1.866,-1.8694,-1.8703,-1.8709,-1.8707,-1.8715,-1.8667,-1.8651,-1.8701,-1.8701,-1.8701,-1.8701,-1.8701,-1.8701,-1.7956,-1.8023,-1.8049,-1.8138,-1.8176,-1.8242,-1.8274,-1.8318,-1.836,-1.8443,-1.8495,-1.8529,-1.8583,-1.8653,-1.8711,-1.8726,-1.8748,-1.8753,-1.8769,-1.8723,-1.8718,-1.8714,-1.8699,-1.8758,-1.8758,-1.8812,-1.8812,-1.8813]},{"header":{"parameterUnit":"m.s-1","parameterCategory":1,"la1":30.2991,"la2":30.254,"lo1":-89.0895,"lo2":-89.0444,"dy":0.0017,"dx":0.0017,"nx":28,"ny":28,"refTime":"2024-08-27T03:00:00:Z","depth":0,"parameterNumber":3,"parameterNumberName":"V-component_of_WINDS"},"data":[0,0,0,0,0,0,0,0,0,0,0,0,0,0,0,0,0,0,0,0,0,0,0,0,0,0,0,0,0,0,0,0,0,0,0,0,0,0,0,0,0,0,0,0,0,0,0,0,0,0,0,0,0,0,0,0,0,0,1.4382,1.4382,0,1.4359,1.4358,1.4358,1.4345,1.4345,1.4345,1.4345,1.4318,1.4317,1.4317,0,0,0,0,0,0,0,0,0,0,0,0,0,1.4414,1.4414,1.4382,1.4382,1.4382,1.4359,1.4358,1.4358,1.4345,1.4345,1.4345,1.4345,1.4318,1.4317,1.4317,0,0,0,0,0,0,0,0,0,0,0,0,0,1.4396,1.4414,1.4383,1.4373,1.4372,1.4359,1.4358,1.4358,1.4345,1.4345,1.4345,1.4345,1.4318,1.4317,1.4316,1.431,0,0,1.4313,1.4313,0,0,0,0,0,0,0,0,1.4397,1.4395,1.4375,1.4373,1.4372,1.4355,1.436,1.4342,1.4345,1.4355,1.4345,1.4345,1.433,1.4328,1.4324,1.4309,1.4308,1.4313,1.4312,1.4312,1.4312,0,0,0,0,0,0,0,1.4399,1.4396,1.4373,1.4374,1.4373,1.4369,1.4366,1.4356,1.4343,1.4354,1.4353,1.4351,1.4329,1.4325,1.4323,1.4308,1.4313,1.4312,1.4311,1.4311,1.4286,1.4286,0,0,0,0,0,0,1.4402,1.4397,1.4374,1.4372,1.4385,1.4368,1.4365,1.436,1.4343,1.4341,1.4351,1.435,1.4326,1.4324,1.4322,1.4313,1.4312,1.4311,1.431,1.4286,1.4286,1.4286,0,0,0,0,0,0,1.4403,1.44,1.4375,1.4384,1.4381,1.4368,1.4362,1.436,1.4355,1.4341,1.4338,1.4349,1.4326,1.4323,1.4313,1.4312,1.4311,1.431,1.4286,1.4286,1.4286,1.4297,0,0,0,0,0,0,1.4404,1.44,1.4399,1.4385,1.4381,1.4368,1.4362,1.436,1.4354,1.4353,1.4338,1.4335,1.4326,1.4315,1.4312,1.4311,1.4309,1.4286,1.4286,1.4286,1.4296,1.4297,1.4298,0,0,0,0,0,1.4405,1.4402,1.4398,1.4396,1.4378,1.4368,1.4365,1.4356,1.4354,1.4351,1.4342,1.4336,1.4313,1.4314,1.4311,1.4309,1.4286,1.4286,1.4286,1.4296,1.4297,1.4298,0,0,0,0,0,0,1.4415,1.44,1.4396,1.4389,1.438,1.4366,1.4362,1.4357,1.4347,1.4347,1.4334,1.4331,1.4322,1.4315,1.4316,1.4302,1.4299,1.4298,1.4307,1.4308,1.4309,1.4311,1.4308,0,0,0,0,0,1.4417,1.441,1.4397,1.4392,1.4388,1.4376,1.4371,1.4364,1.4354,1.435,1.434,1.4329,1.4319,1.4313,1.4304,1.4295,1.4291,1.4292,1.4293,1.4293,1.4293,1.4287,1.4287,1.4286,1.4286,1.4286,0,0,1.442,1.4411,1.4407,1.4394,1.4386,1.4379,1.4373,1.4365,1.4359,1.4348,1.4339,1.4331,1.4318,1.4309,1.4304,1.4302,1.4292,1.4293,1.4294,1.4293,1.4287,1.4287,1.4287,1.4286,1.4286,1.4286,0,0,1.4421,1.4414,1.4409,1.4401,1.439,1.4382,1.4381,1.4368,1.4362,1.4352,1.4344,1.4336,1.432,1.4311,1.4305,1.4303,1.4296,1.43,1.4303,1.4298,1.4298,1.4298,1.4297,1.4296,1.4299,1.43,1.43,0,1.4426,1.4416,1.4407,1.44,1.4394,1.4385,1.4379,1.4371,1.4357,1.4353,1.4351,1.433,1.4321,1.4309,1.4309,1.4304,1.4302,1.4302,1.4299,1.4299,1.4298,1.4297,1.4297,1.43,1.43,1.43,1.43,0,1.4422,1.4415,1.4412,1.44,1.4393,1.4387,1.4376,1.437,1.4364,1.4356,1.4346,1.4335,1.4322,1.4319,1.4313,1.4306,1.4305,1.4301,1.4298,1.4299,1.4298,1.4297,1.4301,1.4301,1.43,1.43,0,0,1.443,1.4413,1.4412,1.4406,1.4392,1.4386,1.4379,1.4368,1.4363,1.4353,1.4346,1.4333,1.4329,1.4321,1.4314,1.4309,1.4308,1.4306,1.4305,1.4306,1.4299,1.4303,1.4302,1.4304,1.4303,1.4303,1.43,0,1.443,1.4418,1.4409,1.44,1.4392,1.4383,1.4377,1.4367,1.436,1.4351,1.4342,1.4333,1.4329,1.4324,1.4319,1.4309,1.4306,1.4309,1.4296,1.4296,1.43,1.4302,1.4305,1.4303,1.43,1.43,1.43,0,1.4428,1.4419,1.4409,1.4397,1.4393,1.4388,1.4377,1.437,1.4358,1.4353,1.4345,1.4337,1.4328,1.4325,1.4312,1.4314,1.4308,1.4302,1.4302,1.43,1.4298,1.43,1.4302,1.4301,1.4299,1.4299,1.4299,0,1.4434,1.442,1.4412,1.4407,1.4392,1.4389,1.4382,1.4371,1.4364,1.4354,1.435,1.4339,1.4332,1.4323,1.4312,1.4312,1.43,1.4297,1.4295,1.4295,1.4292,1.4293,1.4293,1.4289,1.4289,1.4289,1.4289,0,1.4434,1.4429,1.4415,1.441,1.4403,1.4393,1.4386,1.4378,1.4368,1.4361,1.4352,1.4345,1.4331,1.4323,1.4314,1.4304,1.4301,1.4296,1.4294,1.4297,1.4297,1.4292,1.4292,1.4289,1.4289,1.4289,1.4289,0,1.444,1.4431,1.4422,1.4408,1.4405,1.44,1.4388,1.4383,1.4374,1.4365,1.4363,1.4349,1.4339,1.4327,1.4312,1.4306,1.4296,1.4293,1.4301,1.4299,1.4298,1.4298,1.4295,1.4294,1.4291,1.4291,1.4291,0,1.4441,1.4436,1.4423,1.4418,1.4412,1.4404,1.4398,1.4387,1.4381,1.4367,1.4363,1.4352,1.4342,1.4325,1.4314,1.4302,1.4298,1.4298,1.4296,1.4299,1.4298,1.4298,1.4297,1.4298,1.4298,1.4299,1.4299,0,1.4443,1.4439,1.4431,1.4421,1.4414,1.4406,1.4397,1.4393,1.438,1.4374,1.4363,1.4356,1.4341,1.4329,1.4316,1.4308,1.4301,1.4299,1.4298,1.4301,1.4305,1.4303,1.4302,1.4299,1.4299,1.4299,1.4299,1.4299,1.4446,1.4442,1.4431,1.4423,1.4415,1.4407,1.4401,1.4393,1.4384,1.4372,1.4365,1.4355,1.4343,1.4324,1.4316,1.4307,1.4305,1.4303,1.4303,1.4303,1.4303,1.4307,1.4305,1.4305,1.4305,1.4305,1.4304,0,1.4448,1.4441,1.4433,1.4421,1.4414,1.4409,1.4399,1.4393,1.4384,1.4374,1.4365,1.4352,1.4341,1.4329,1.4317,1.4311,1.4308,1.4308,1.4309,1.4307,1.4306,1.4308,1.4312,1.4312,1.4312,1.4312,1.4312,1.4312,1.4448,1.444,1.4434,1.4422,1.4415,1.4405,1.44,1.4392,1.4384,1.4371,1.4362,1.4354,1.4342,1.4329,1.4319,1.4315,1.4311,1.4312,1.4308,1.4307,1.4307,1.4306,1.4308,1.4312,1.4312,1.4309,1.4309,1.4309]}]]